When you browse on this site, cookies collect data to enhance your experience and personalize the content and advertising you see.
Visit our Privacy Policy to learn more. By continuing to use the site, you agree to this use of cookies and data.
  • In Hungary
  • List of Countries
  • For 7 days
  • Water Temperature
  • Satellite Maps
  • Weather Map
  • News
  • Weather Widgets
  • user-avatar
    Login

    Hourly Weather Dzhuli

    Today, 19 November, Monday

    Time Temperature Precipitation Wind Pressure Humidity
    00:00 +2°C° 0 mm 1 mps 667 mmHg 70%
    01:00 +2°C° 0 mm 1 mps 667 mmHg 69%
    02:00 +2°C° 0 mm 1 mps 667 mmHg 68%
    03:00 +2°C° 0 mm 1 mps 666 mmHg 69%
    04:00 +2°C° 0 mm 1 mps 666 mmHg 68%
    05:00 +1°C° 0 mm 1 mps 666 mmHg 67%
    06:00 +1°C° 0 mm 1 mps 667 mmHg 66%
    07:00 +2°C° 0 mm 1 mps 667 mmHg 62%
    08:00 +3°C° 0 mm 1 mps 667 mmHg 58%
    09:00 +5°C° 0 mm 1 mps 668 mmHg 56%
    10:00 +4°C° 0 mm 2 mps 668 mmHg 56%
    11:00 +5°C° 0 mm 2 mps 668 mmHg 56%
    12:00 +5°C° 0 mm 2 mps 668 mmHg 56%
    13:00 +5°C° 0 mm 2 mps 668 mmHg 59%
    14:00 +5°C° 0 mm 2 mps 668 mmHg 61%
    15:00 +5°C° 0 mm 1 mps 668 mmHg 66%
    16:00 +4°C° 0 mm 1 mps 668 mmHg 66%
    17:00 +3°C° 0 mm 1 mps 668 mmHg 67%
    18:00 +3°C° 0 mm 1 mps 668 mmHg 67%
    19:00 +2°C° 0 mm 2 mps 667 mmHg 64%
    20:00 +2°C° 0 mm 2 mps 667 mmHg 60%
    21:00 +2°C° 0 mm 2 mps 667 mmHg 57%
    22:00 +2°C° 0 mm 2 mps 667 mmHg 54%
    23:00 +2°C° 0 mm 2 mps 667 mmHg 52%

    Tomorrow, 20 November, Tuesday

    Time Temperature Precipitation Wind Pressure Humidity
    00:00 +1°C° 0 mm 3 mps 666 mmHg 50%
    01:00 +1°C° 0 mm 3 mps 666 mmHg 48%
    02:00 +1°C° 0 mm 3 mps 666 mmHg 47%
    03:00 +2°C° 0 mm 3 mps 665 mmHg 46%
    04:00 +2°C° 0 mm 3 mps 665 mmHg 46%
    05:00 +2°C° 0 mm 3 mps 665 mmHg 45%
    06:00 +3°C° 0 mm 2 mps 665 mmHg 45%
    07:00 +5°C° 0 mm 2 mps 665 mmHg 43%
    08:00 +6°C° 0 mm 2 mps 665 mmHg 42%
    09:00 +9°C° 0 mm 1 mps 665 mmHg 41%
    10:00 +10°C° 0 mm 1 mps 664 mmHg 41%
    11:00 +11°C° 0 mm 1 mps 664 mmHg 41%
    12:00 +12°C° 0 mm 1 mps 664 mmHg 42%
    13:00 +12°C° 0 mm 1 mps 663 mmHg 45%
    14:00 +11°C° 0 mm 1 mps 663 mmHg 49%
    15:00 +11°C° 0 mm 1 mps 662 mmHg 52%
    16:00 +9°C° 0 mm 2 mps 662 mmHg 56%
    17:00 +8°C° 0 mm 2 mps 662 mmHg 60%
    18:00 +5°C° 0 mm 3 mps 662 mmHg 64%
    19:00 +5°C° 0 mm 3 mps 662 mmHg 63%
    20:00 +5°C° 0 mm 3 mps 661 mmHg 62%
    21:00 +5°C° 0 mm 3 mps 661 mmHg 61%
    22:00 +6°C° 0 mm 2 mps 661 mmHg 62%
    23:00 +6°C° 0 mm 2 mps 661 mmHg 62%

    Day after tomorrow, 21 November, Wednesday

    Time Temperature Precipitation Wind Pressure Humidity
    00:00 +6°C° 0 mm 2 mps 661 mmHg 63%
    01:00 +4°C° 0 mm 3 mps 661 mmHg 66%
    02:00 +4°C° 0 mm 3 mps 661 mmHg 70%
    03:00 +3°C° 0 mm 3 mps 661 mmHg 74%
    04:00 +3°C° 0 mm 3 mps 661 mmHg 74%
    05:00 +4°C° 0 mm 2 mps 661 mmHg 75%
    06:00 +3°C° 0 mm 2 mps 661 mmHg 76%
    07:00 +4°C° 0 mm 2 mps 662 mmHg 72%
    08:00 +5°C° 0 mm 2 mps 662 mmHg 68%
    09:00 +6°C° 0 mm 2 mps 662 mmHg 64%
    10:00 +7°C° 0 mm 3 mps 662 mmHg 63%
    11:00 +7°C° 0 mm 3 mps 662 mmHg 62%
    12:00 +7°C° 0 mm 4 mps 662 mmHg 61%
    13:00 +6°C° 0 mm 4 mps 662 mmHg 65%
    14:00 +5°C° 0 mm 4 mps 662 mmHg 70%
    15:00 +4°C° 0 mm 4 mps 662 mmHg 75%
    16:00 +4°C° 0 mm 3 mps 662 mmHg 79%
    17:00 +3°C° 0 mm 3 mps 662 mmHg 83%
    18:00 +3°C° 0 mm 2 mps 662 mmHg 86%
    19:00 +3°C° 0.2 mm 2 mps 662 mmHg 87%
    20:00 +3°C° 0.2 mm 2 mps 662 mmHg 88%
    21:00 +3°C° 0.2 mm 2 mps 662 mmHg 88%
    22:00 +3°C° 0.2 mm 2 mps 662 mmHg 89%
    23:00 +3°C° 0.2 mm 2 mps 662 mmHg 89%

    22 November, Thursday

    Time Temperature Precipitation Wind Pressure Humidity
    00:00 +3°C° 0.2 mm 1 mps 662 mmHg 89%
    01:00 +3°C° 0.1 mm 1 mps 662 mmHg 90%
    02:00 +3°C° 0.1 mm 1 mps 661 mmHg 90%
    03:00 +3°C° 0.1 mm 1 mps 661 mmHg 91%
    04:00 +3°C° 0 mm 1 mps 661 mmHg 91%
    05:00 +3°C° 0 mm 1 mps 661 mmHg 91%
    06:00 +2°C° 0 mm 1 mps 661 mmHg 91%
    07:00 +2°C° 0 mm 2 mps 662 mmHg 87%
    08:00 +3°C° 0 mm 2 mps 662 mmHg 84%
    09:00 +3°C° 0 mm 2 mps 663 mmHg 81%
    10:00 +4°C° 0 mm 2 mps 662 mmHg 79%
    11:00 +4°C° 0 mm 2 mps 662 mmHg 78%
    12:00 +5°C° 0 mm 2 mps 662 mmHg 76%
    13:00 +4°C° 0 mm 2 mps 662 mmHg 78%
    14:00 +4°C° 0 mm 2 mps 662 mmHg 79%
    15:00 +4°C° 0 mm 2 mps 662 mmHg 81%
    16:00 +3°C° 0 mm 2 mps 662 mmHg 83%
    17:00 +3°C° 0 mm 2 mps 662 mmHg 84%
    18:00 +3°C° 0 mm 1 mps 662 mmHg 86%
    19:00 +3°C° 0 mm 1 mps 662 mmHg 85%
    20:00 +3°C° 0 mm 1 mps 662 mmHg 84%
    21:00 +3°C° 0 mm 1 mps 662 mmHg 84%
    22:00 +3°C° 0 mm 1 mps 662 mmHg 83%
    23:00 +3°C° 0 mm 1 mps 662 mmHg 83%

    23 November, Friday

    Time Temperature Precipitation Wind Pressure Humidity
    00:00 +3°C° 0 mm 1 mps 662 mmHg 82%
    01:00 +3°C° 0 mm 1 mps 662 mmHg 82%
    02:00 +3°C° 0 mm 1 mps 661 mmHg 82%
    03:00 +3°C° 0 mm 1 mps 661 mmHg 82%
    04:00 +2°C° 0 mm 1 mps 661 mmHg 82%
    05:00 +2°C° 0 mm 1 mps 661 mmHg 82%
    06:00 +2°C° 0 mm 1 mps 661 mmHg 82%
    07:00 +3°C° 0 mm 1 mps 662 mmHg 79%
    08:00 +4°C° 0 mm 1 mps 662 mmHg 76%
    09:00 +5°C° 0 mm 1 mps 663 mmHg 73%
    10:00 +4°C° 0 mm 2 mps 663 mmHg 73%
    11:00 +5°C° 0 mm 2 mps 663 mmHg 72%
    12:00 +5°C° 0 mm 2 mps 663 mmHg 72%
    13:00 +5°C° 0 mm 2 mps 663 mmHg 75%
    14:00 +4°C° 0 mm 2 mps 663 mmHg 78%
    15:00 +4°C° 0 mm 2 mps 663 mmHg 81%
    16:00 +2°C° 0.1 mm 3 mps 664 mmHg 83%
    17:00 +1°C° 0.1 mm 3 mps 664 mmHg 86%
    18:00 +1°C° 0.1 mm 3 mps 665 mmHg 88%
    19:00 0°C° 0 mm 3 mps 666 mmHg 86%
    20:00 0°C° 0 mm 3 mps 666 mmHg 85%
    21:00 -2°C° 0 mm 4 mps 667 mmHg 84%
    22:00 -1°C° 0 mm 3 mps 667 mmHg 84%
    23:00 -2°C° 0 mm 3 mps 668 mmHg 84%

    24 November, Saturday

    Time Temperature Precipitation Wind Pressure Humidity
    00:00 -2°C° 0 mm 3 mps 668 mmHg 84%
    01:00 -2°C° 0 mm 2 mps 668 mmHg 84%
    02:00 -3°C° 0 mm 2 mps 669 mmHg 84%
    03:00 -3°C° 0 mm 2 mps 669 mmHg 84%
    04:00 -3°C° 0 mm 2 mps 670 mmHg 84%
    05:00 -1°C° 0 mm 1 mps 670 mmHg 84%
    06:00 -1°C° 0 mm 1 mps 671 mmHg 84%
    07:00 -2°C° 0 mm 2 mps 671 mmHg 80%
    08:00 -1°C° 0 mm 2 mps 672 mmHg 76%
    09:00 +1°C° 0 mm 2 mps 673 mmHg 72%
    10:00 +1°C° 0 mm 3 mps 673 mmHg 70%
    11:00 +1°C° 0 mm 3 mps 673 mmHg 67%
    12:00 +1°C° 0 mm 4 mps 673 mmHg 65%
    13:00 +1°C° 0 mm 4 mps 672 mmHg 67%
    14:00 +1°C° 0 mm 4 mps 672 mmHg 69%
    15:00 +1°C° 0 mm 4 mps 672 mmHg 70%
    16:00 0°C° 0 mm 4 mps 672 mmHg 73%
    17:00 0°C° 0 mm 4 mps 671 mmHg 75%
    18:00 -1°C° 0 mm 4 mps 671 mmHg 77%
    19:00 -1°C° 0 mm 4 mps 671 mmHg 76%
    20:00 0°C° 0 mm 3 mps 671 mmHg 74%
    21:00 0°C° 0 mm 3 mps 670 mmHg 72%
    22:00 0°C° 0 mm 3 mps 670 mmHg 70%
    23:00 0°C° 0 mm 3 mps 669 mmHg 69%
    Show more